Sheldon, IA

11:00 AM CST on December 15, 2017 (GMT -0600)
Sheldon Municipal

Weather History for KSHL - November, 2012

Change the Weather History Date:

Sunday, November 18, 2012

  Actual Average Record
Temperature  
Mean Temperature 48 °F -  
Max Temperature 59 °F 40 °F 71 °F (1999)
Min Temperature 37 °F 23 °F -3 °F (1986)
Degree Days  
Heating Degree Days 17    
Moisture  
Dew Point 33 °F    
Average Humidity 59    
Maximum Humidity 75    
Minimum Humidity 39    
Precipitation  
Precipitation 0.00 in - - ()
Sea Level Pressure  
Sea Level Pressure 30.05 in    
Wind  
Wind Speed 16 mph (South)    
Max Wind Speed 21 mph    
Max Gust Speed 26 mph    
Visibility 10 miles    
Events      
Averages and records for this station are not official NWS values.
T = Trace of Precipitation, MM = Missing Value Source: NWS Daily Summary

Daily Weather History Graph

Daily Weather History Graph

Search for Another Location

Airport or City:

Trip Planner

Search our weather history database for the weather conditions in past years. The results will help you decide how hot, cold, wet, or windy it might be!

Date:

Astronomy

Nov. 18, 2012 Rise Set
Actual Time 7:20 AM CST 4:56 PM CST
Civil Twilight 6:49 AM CST 5:27 PM CST
Nautical Twilight 6:15 AM CST 6:01 PM CST
Astronomical Twilight 5:41 AM CST 6:35 PM CST
Moon 11:46 AM CST (11/18) 10:19 PM CST (11/18)
Length of Visible Light 10h 37m
Length of Day
9h 35m
Waxing Crescent, 30% of the Moon is Illuminated
Nov 18
Waxing Crescent
Nov 20
First Quarter
Nov 28
Full
Dec 6
Last Quarter
Dec 13
New

Hourly Weather History & Observations

Time (CST) Temp. Windchill Dew Point Humidity Pressure Visibility Wind Dir Wind Speed Gust Speed Precip Events Conditions
12:15 AM 42.8 °F 34.8 °F 33.8 °F 70% 30.10 in 10.0 mi SSE 17.3 mph - N/A   Partly Cloudy
12:35 AM 42.8 °F 34.5 °F 33.8 °F 70% 30.09 in 10.0 mi SSE 18.4 mph - N/A   Partly Cloudy
12:55 AM 42.8 °F 34.5 °F 33.8 °F 70% 30.09 in 10.0 mi SSE 18.4 mph - N/A   Clear
1:15 AM 42.8 °F 35.1 °F 33.8 °F 70% 30.09 in 10.0 mi SSE 16.1 mph - N/A   Clear
1:55 AM 42.8 °F 35.4 °F 33.8 °F 70% 30.09 in 10.0 mi SSE 15.0 mph 21.9 mph N/A   Clear
2:15 AM 42.8 °F 35.4 °F 32.0 °F 66% 30.09 in 10.0 mi South 15.0 mph 20.7 mph N/A   Clear
2:35 AM 42.8 °F 35.4 °F 32.0 °F 66% 30.09 in 10.0 mi SSE 15.0 mph - N/A   Clear
2:55 AM 41.0 °F 32.8 °F 32.0 °F 70% 30.09 in 10.0 mi South 16.1 mph - N/A   Clear
3:15 AM 41.0 °F 33.1 °F 32.0 °F 70% 30.09 in 10.0 mi South 15.0 mph - N/A   Clear
3:35 AM 41.0 °F 33.5 °F 32.0 °F 70% 30.08 in 10.0 mi South 13.8 mph - N/A   Clear
3:55 AM 39.2 °F 31.2 °F 32.0 °F 75% 30.08 in 10.0 mi South 13.8 mph - N/A   Clear
4:15 AM 39.2 °F 31.6 °F 30.2 °F 70% 30.08 in 10.0 mi South 12.7 mph - N/A   Clear
4:35 AM 39.2 °F 31.2 °F 30.2 °F 70% 30.07 in 10.0 mi SSE 13.8 mph - N/A   Clear
4:55 AM 39.2 °F 31.6 °F 30.2 °F 70% 30.08 in 10.0 mi South 12.7 mph - N/A   Clear
5:15 AM 39.2 °F 31.6 °F 30.2 °F 70% 30.08 in 10.0 mi South 12.7 mph - N/A   Clear
5:35 AM 39.2 °F 30.8 °F 30.2 °F 70% 30.08 in 10.0 mi South 15.0 mph - N/A   Clear
5:55 AM 39.2 °F 30.8 °F 30.2 °F 70% 30.07 in 10.0 mi South 15.0 mph - N/A   Clear
6:15 AM 39.2 °F 31.6 °F 30.2 °F 70% 30.07 in 10.0 mi South 12.7 mph - N/A   Clear
6:35 AM 37.4 °F 29.3 °F 30.2 °F 75% 30.06 in 10.0 mi South 12.7 mph - N/A   Clear
6:55 AM 37.4 °F 29.3 °F 30.2 °F 75% 30.06 in 10.0 mi South 12.7 mph - N/A   Clear
7:15 AM 37.4 °F 30.3 °F 30.2 °F 75% 30.07 in 10.0 mi South 10.4 mph - N/A   Clear
7:35 AM 37.4 °F 30.3 °F 30.2 °F 75% 30.07 in 10.0 mi South 10.4 mph - N/A   Clear
7:55 AM 39.2 °F 31.6 °F 30.2 °F 70% 30.07 in 10.0 mi South 12.7 mph - N/A   Clear
8:15 AM 39.2 °F 30.8 °F 30.2 °F 70% 30.06 in 10.0 mi South 15.0 mph - N/A   Clear
8:35 AM 42.8 °F 35.8 °F 30.2 °F 61% 30.07 in 10.0 mi South 13.8 mph - N/A   Clear
8:55 AM 44.6 °F 37.8 °F 30.2 °F 57% 30.07 in 10.0 mi South 15.0 mph - N/A   Clear
9:15 AM 44.6 °F 38.4 °F 30.2 °F 57% 30.07 in 10.0 mi South 12.7 mph 19.6 mph N/A   Clear
9:35 AM 46.4 °F 40.1 °F 32.0 °F 57% 30.06 in 10.0 mi South 15.0 mph - N/A   Clear
9:55 AM 48.2 °F - 30.2 °F 50% 30.06 in 10.0 mi South 18.4 mph - N/A   Clear
10:15 AM 48.2 °F - 32.0 °F 54% 30.07 in 10.0 mi South 17.3 mph 24.2 mph N/A   Clear
10:35 AM 50.0 °F - 32.0 °F 50% 30.07 in 10.0 mi South 16.1 mph 24.2 mph N/A   Clear
10:55 AM 51.8 °F - 32.0 °F 47% 30.07 in 10.0 mi South 17.3 mph 24.2 mph N/A   Clear
11:15 AM 51.8 °F - 32.0 °F 47% 30.06 in 10.0 mi South 15.0 mph 23.0 mph N/A   Clear
11:35 AM 53.6 °F - 32.0 °F 44% 30.06 in 10.0 mi South 18.4 mph - N/A   Clear
11:55 AM 51.8 °F - 32.0 °F 47% 30.04 in 10.0 mi South 13.8 mph 25.3 mph N/A   Clear
12:15 PM 55.4 °F - 33.8 °F 44% 30.04 in 10.0 mi South 15.0 mph 23.0 mph N/A   Clear
12:35 PM 55.4 °F - 33.8 °F 44% 30.03 in 10.0 mi South 16.1 mph - N/A   Clear
12:55 PM 55.4 °F - 33.8 °F 44% 30.03 in 10.0 mi South 13.8 mph 20.7 mph N/A   Clear
1:15 PM 57.2 °F - 33.8 °F 41% 30.03 in 10.0 mi South 16.1 mph - N/A   Clear
1:35 PM 57.2 °F - 33.8 °F 41% 30.02 in 10.0 mi South 18.4 mph - N/A   Clear
1:55 PM 57.2 °F - 33.8 °F 41% 30.01 in 10.0 mi South 18.4 mph 24.2 mph N/A   Clear
2:15 PM 57.2 °F - 35.6 °F 44% 30.01 in 10.0 mi South 17.3 mph 25.3 mph N/A   Clear
2:35 PM 59.0 °F - 35.6 °F 42% 30.01 in 10.0 mi South 18.4 mph 26.5 mph N/A   Clear
2:55 PM 59.0 °F - 35.6 °F 42% 30.00 in 10.0 mi South 20.7 mph - N/A   Clear
3:15 PM 59.0 °F - 35.6 °F 42% 30.00 in 10.0 mi South 19.6 mph 26.5 mph N/A   Clear
3:35 PM 59.0 °F - 35.6 °F 42% 30.00 in 10.0 mi SSE 18.4 mph - N/A   Clear
3:55 PM 59.0 °F - 35.6 °F 42% 30.00 in 10.0 mi South 17.3 mph - N/A   Clear
4:15 PM 59.0 °F - 33.8 °F 39% 30.01 in 10.0 mi SSE 17.3 mph 25.3 mph N/A   Clear
4:35 PM 57.2 °F - 33.8 °F 41% 30.01 in 10.0 mi SSE 17.3 mph 23.0 mph N/A   Clear
4:55 PM 55.4 °F - 33.8 °F 44% 30.01 in 10.0 mi SSE 13.8 mph - N/A   Clear
5:15 PM 51.8 °F - 33.8 °F 50% 30.01 in 10.0 mi SSE 13.8 mph - N/A   Clear
5:35 PM 51.8 °F - 33.8 °F 50% 30.02 in 10.0 mi SSE 16.1 mph - N/A   Clear
5:55 PM 50.0 °F - 33.8 °F 54% 30.02 in 10.0 mi SSE 17.3 mph - N/A   Clear
6:15 PM 50.0 °F - 33.8 °F 54% 30.02 in 10.0 mi SSE 16.1 mph - N/A   Clear
6:35 PM 48.2 °F - 33.8 °F 58% 30.02 in 10.0 mi SSE 17.3 mph - N/A   Partly Cloudy
6:55 PM 48.2 °F - 33.8 °F 58% 30.02 in 10.0 mi SSE 15.0 mph - N/A   Clear
7:15 PM 48.2 °F - 33.8 °F 58% 30.03 in 10.0 mi SSE 17.3 mph - N/A   Clear
7:35 PM 48.2 °F - 33.8 °F 58% 30.03 in 10.0 mi SSE 15.0 mph - N/A   Clear
7:55 PM 48.2 °F - 33.8 °F 58% 30.03 in 10.0 mi SSE 16.1 mph - N/A   Clear
8:15 PM 46.4 °F 39.8 °F 33.8 °F 62% 30.03 in 10.0 mi SSE 16.1 mph - N/A   Clear
8:35 PM 46.4 °F 40.4 °F 33.8 °F 62% 30.04 in 10.0 mi SSE 13.8 mph - N/A   Clear
8:55 PM 46.4 °F 40.4 °F 33.8 °F 62% 30.03 in 10.0 mi SSE 13.8 mph - N/A   Scattered Clouds
9:15 PM 44.6 °F 38.1 °F 35.6 °F 71% 30.03 in 10.0 mi SSE 13.8 mph - N/A   Scattered Clouds
9:35 PM 46.4 °F 40.4 °F 35.6 °F 66% 30.03 in 10.0 mi SSE 13.8 mph - N/A   Partly Cloudy
9:55 PM 46.4 °F 39.5 °F 35.6 °F 66% 30.02 in 10.0 mi SSE 17.3 mph - N/A   Partly Cloudy
10:35 PM 46.4 °F 39.8 °F 35.6 °F 66% 30.02 in 10.0 mi SSE 16.1 mph - N/A   Clear
11:15 PM 46.4 °F 40.4 °F 35.6 °F 66% 30.02 in 10.0 mi SSE 13.8 mph - N/A   Scattered Clouds
11:35 PM 46.4 °F 40.7 °F 35.6 °F 66% 30.02 in 10.0 mi SSE 12.7 mph - N/A   Mostly Cloudy
11:55 PM 46.4 °F 40.4 °F 35.6 °F 66% 30.02 in 10.0 mi SSE 13.8 mph - N/A   Overcast